Weather History for McCook, NE

Change the Weather History Date:

Wednesday, April 2, 2014

  Actual Average Record
Temperature  
Mean Temperature 39 °F 45 °F  
Max Temperature 46 °F 60 °F 90 °F (1996)
Min Temperature 31 °F 29 °F 0 °F (1936)
Degree Days  
Heating Degree Days 26    
Moisture  
Dew Point 27 °F    
Average Humidity 66    
Maximum Humidity 86    
Minimum Humidity 55    
Precipitation  
Precipitation 0.00 in 0.06 in 1.03 in (1988)
Month to date precipitation 0.00 0.11  
Year to date precipitation 0.75 2.60  
Sea Level Pressure  
Sea Level Pressure 29.86 in    
Wind  
Wind Speed 14 mph (ENE)    
Max Wind Speed 18 mph    
Max Gust Speed -    
Visibility 8 miles    
Events      
T = Trace of Precipitation, MM = Missing Value Source: NWS Daily Summary

Daily Weather History Graph

Daily Weather History Graph

Search for Another Location

Airport:

Trip Planner

Search our weather history database for the weather conditions in past years. The results will help you decide how hot, cold, wet, or windy it might be!

Date:

Astronomy

Apr. 02, 2014 Rise Set
Actual Time 7:24 AM CDT 8:07 PM CDT
Civil Twilight 6:57 AM CDT 8:35 PM CDT
Nautical Twilight 6:24 AM CDT 9:07 PM CDT
Astronomical Twilight 5:51 AM CDT 9:41 PM CDT
Moon 9:10 AM CDT (4/2) 11:33 PM CDT (4/2)
Length of Visible Light 13h 38m
Length of Day
12h 43m
Waxing Crescent, 10% of the Moon is Illuminated
Apr 2
Waxing Crescent
Apr 7
First Quarter
Apr 15
Full
Apr 22
Last Quarter
Apr 29
New

Hourly Weather History & Observations

Time (CDT) Temp. Windchill Dew Point Humidity Pressure Visibility Wind Dir Wind Speed Gust Speed Precip Events Conditions
12:53 AM 35.1 °F 25.2 °F 21.0 °F 57% 29.96 in 10.0 mi East 16.1 mph - N/A   Clear
1:53 AM 35.1 °F 25.2 °F 21.0 °F 57% 29.91 in 10.0 mi ENE 16.1 mph - N/A   Clear
2:53 AM 35.1 °F 25.2 °F 21.0 °F 57% 29.91 in 10.0 mi East 16.1 mph - N/A   Mostly Cloudy
3:53 AM 34.0 °F 25.5 °F 21.0 °F 59% 29.92 in 10.0 mi East 11.5 mph - N/A   Overcast
4:53 AM 34.0 °F 25.5 °F 21.0 °F 59% 29.91 in 10.0 mi ENE 11.5 mph - N/A   Overcast
5:53 AM 33.1 °F 25.5 °F 21.0 °F 61% 29.91 in 10.0 mi ENE 9.2 mph - N/A   Mostly Cloudy
7:53 AM 32.0 °F 23.0 °F 21.0 °F 64% 29.91 in 10.0 mi ENE 11.5 mph - N/A   Overcast
8:53 AM 34.0 °F 25.0 °F 21.9 °F 61% 29.91 in 10.0 mi ENE 12.7 mph - N/A   Mostly Cloudy
9:53 AM 35.1 °F 25.2 °F 21.9 °F 59% 29.91 in 10.0 mi ENE 16.1 mph - N/A   Mostly Cloudy
10:04 AM 35.1 °F 25.5 °F 21.9 °F 59% 29.85 in 10.0 mi ENE 15.0 mph - N/A   Overcast
10:53 AM 36.0 °F 27.5 °F 23.0 °F 59% 29.89 in 10.0 mi ENE 12.7 mph - N/A   Overcast
11:53 AM 37.0 °F 28.9 °F 24.1 °F 59% 29.89 in 9.0 mi East 12.7 mph - N/A   Overcast
12:53 PM 39.0 °F 32.3 °F 25.0 °F 57% 29.88 in 9.0 mi ENE 10.4 mph - N/A   Overcast
1:53 PM 41.0 °F 35.8 °F 28.0 °F 60% 29.86 in 9.0 mi East 8.1 mph - N/A   Overcast
2:53 PM 42.1 °F - 28.0 °F 58% 29.84 in 8.0 mi North - - N/A   Overcast
3:53 PM 44.1 °F 38.6 °F 28.9 °F 55% 29.82 in 8.0 mi ENE 10.4 mph - N/A   Overcast
4:53 PM 45.0 °F 39.3 °F 30.0 °F 56% 29.80 in 7.0 mi East 11.5 mph - N/A   Overcast
5:53 PM 44.1 °F 37.7 °F 30.0 °F 58% 29.80 in 7.0 mi NE 12.7 mph - N/A   Mostly Cloudy
6:53 PM 44.1 °F 36.8 °F 30.9 °F 60% 29.81 in 7.0 mi ENE 16.1 mph - N/A   Mostly Cloudy
7:02 PM 43.0 °F 35.4 °F 30.9 °F 62% 29.77 in 7.0 mi NE 16.1 mph - N/A   Scattered Clouds
7:53 PM 39.0 °F 29.6 °F 30.9 °F 73% 29.79 in 6.0 mi ENE 18.4 mph - N/A   Haze
8:53 PM 37.9 °F 29.2 °F 32.0 °F 79% 29.81 in 6.0 mi ENE 15.0 mph - N/A   Haze
9:10 PM 37.9 °F 30.0 °F 32.0 °F 79% 29.78 in 6.0 mi NE 12.7 mph - N/A   Haze
9:53 PM 37.0 °F 28.5 °F 33.1 °F 86% 29.84 in 4.0 mi NNE 13.8 mph - N/A   Overcast
10:11 PM 37.0 °F 28.1 °F 33.1 °F 86% 29.80 in 4.0 mi NE 15.0 mph - N/A   Overcast
10:22 PM 37.0 °F 29.3 °F 33.1 °F 86% 29.82 in 5.0 mi NE 11.5 mph - N/A   Overcast
10:49 PM 37.4 °F 28.5 °F 32.0 °F 81% 29.80 in 5.0 mi NE 15.0 mph - N/A   Haze
10:53 PM 37.0 °F 28.5 °F 32.0 °F 82% 29.86 in 5.0 mi NNE 13.8 mph - N/A   Haze
11:53 PM 37.0 °F 28.1 °F 30.9 °F 79% 29.86 in 6.0 mi NNE 15.0 mph - N/A   Haze